FLOCK 2K-28

Last updated on Wed Feb 14 2018 16:20:53 GMT+0000 (Coordinated Universal Time)

1 42880U 17042BH 18045.20469460 .00001733 00000-0 54602-4 0 9990 2 42880 96.9931 307.8443 0012443 179.4596 180.6663 15.34104628 32745
UTC large
Height (km)
Speed (km/s)
/
Latitude / Longitude
Inclination (degrees)
Orbital Period (minutes)
Azimuth
Elevation
Range (km)
Doppler Factor

Next 0 passes for location: London (51.5072 / 0.1276)

Sorry there are no passes over London.